Henderson, KY

11:10 PM CST on December 15, 2019 (GMT -0600)
Henderson City-County

Weather History for KEHR - November, 2019

Change the Weather History Date:

Friday, November 22, 2019

  Actual Average Record
Temperature  
Mean Temperature 44 °F -  
Max Temperature 50 °F 54 °F 74 °F (1983)
Min Temperature 39 °F 34 °F 9 °F (1964)
Degree Days  
Heating Degree Days 20    
Moisture  
Dew Point 39 °F    
Average Humidity 86    
Maximum Humidity 100    
Minimum Humidity 73    
Precipitation  
Precipitation 0.32 in - - ()
Sea Level Pressure  
Sea Level Pressure 30.09 in    
Wind  
Wind Speed 8 mph (North)    
Max Wind Speed 15 mph    
Max Gust Speed 17 mph    
Visibility 10 miles    
Events Rain    
Averages and records for this station are not official NWS values.
T = Trace of Precipitation, MM = Missing Value Source: NWS Daily Summary

Daily Weather History Graph

Daily Weather History Graph

Search for Another Location

Airport or City:

Astronomy

Nov. 22, 2019 Rise Set
Actual Time 6:38 AM CST 4:35 PM CST
Civil Twilight 6:09 AM CST 5:03 PM CST
Nautical Twilight 5:37 AM CST 5:35 PM CST
Astronomical Twilight 5:06 AM CST 6:06 PM CST
Moon 1:50 AM CST (11/22) 2:29 PM CST (11/22)
Length of Visible Light 10h 53m
Length of Day
9h 56m
Waning Crescent, 19% of the Moon is Illuminated
Nov 22
Waning Crescent
Nov 26
New
Dec 4
First Quarter
Dec 11
Full
Dec 18
Last Quarter

Hourly Weather History & Observations

Time (CST) Temp. Windchill Dew Point Humidity Pressure Visibility Wind Dir Wind Speed Gust Speed Precip Events Conditions
12:07 AM 50.0 °F - 48.2 °F 94% 30.02 in 8.0 mi Variable 4.6 mph - 0.01 in Rain Light Rain
12:35 AM 48.2 °F - 46.4 °F 93% 30.02 in 10.0 mi North 6.9 mph - 0.02 in Rain Light Rain
12:44 AM 48.2 °F - 46.4 °F 93% 30.03 in 10.0 mi North - - 0.03 in Rain Light Rain
12:56 AM 48.0 °F - 46.0 °F 93% 30.03 in 10.0 mi North 8.1 mph - 0.03 in Rain Light Rain
1:34 AM 44.6 °F 38.8 °F 42.8 °F 93% 30.04 in 6.0 mi NNW 11.5 mph - 0.02 in Rain Light Rain
2:11 AM 44.6 °F 40.2 °F 42.8 °F 93% 30.06 in 7.0 mi NW 8.1 mph - 0.01 in Rain Rain
2:42 AM 42.8 °F 38.6 °F 42.8 °F 100% 30.06 in 8.0 mi NNW 6.9 mph - 0.03 in Rain Rain
2:56 AM 43.0 °F 37.7 °F 41.0 °F 93% 30.08 in 10.0 mi NNW 9.2 mph - 0.03 in Rain Rain
3:54 AM 42.8 °F 38.0 °F 39.2 °F 87% 30.06 in 8.0 mi NNW 8.1 mph 16.1 mph 0.03 in Rain Rain
3:56 AM 42.1 °F 37.1 °F 39.9 °F 92% 30.07 in 8.0 mi NNW 8.1 mph 16.1 mph 0.03 in Rain Rain
4:56 AM 42.1 °F 37.1 °F 39.9 °F 92% 30.10 in 10.0 mi NNW 8.1 mph - N/A Rain Rain
6:16 AM 41.0 °F 35.2 °F 37.4 °F 87% 30.14 in 10.0 mi North 9.2 mph - 0.01 in   Overcast
6:37 AM 41.0 °F 34.7 °F 37.4 °F 87% 30.12 in 10.0 mi North 10.4 mph - 0.02 in   Overcast
6:52 AM 41.0 °F 35.8 °F 37.4 °F 87% 30.12 in 10.0 mi NNE 8.1 mph - 0.02 in   Overcast
7:13 AM 41.0 °F 34.7 °F 37.4 °F 87% 30.13 in 10.0 mi North 10.4 mph - 0.01 in   Overcast
8:56 AM 41.0 °F 34.3 °F 37.0 °F 86% 30.16 in 10.0 mi North 11.5 mph 17.3 mph 0.02 in   Overcast
9:56 AM 42.1 °F 34.5 °F 37.0 °F 82% 30.16 in 10.0 mi NNE 15.0 mph - 0.02 in   Overcast
10:56 AM 43.0 °F 37.2 °F 37.0 °F 80% 30.17 in 10.0 mi North 10.4 mph - 0.02 in   Overcast
11:56 AM 43.0 °F 37.2 °F 37.0 °F 80% 30.14 in 10.0 mi NNE 10.4 mph - 0.01 in   Overcast
12:56 PM 43.0 °F 37.7 °F 37.0 °F 80% 30.11 in 10.0 mi NNE 9.2 mph - 0.02 in   Overcast
1:56 PM 44.1 °F 40.8 °F 36.0 °F 73% 30.14 in 10.0 mi North 5.8 mph - 0.02 in   Overcast
2:56 PM 44.1 °F 39.0 °F 36.0 °F 73% 30.12 in 10.0 mi NNE 9.2 mph - 0.01 in   Overcast
3:56 PM 43.0 °F 38.2 °F 36.0 °F 76% 30.10 in 10.0 mi NNE 8.1 mph - 0.02 in   Overcast
4:56 PM 41.0 °F 35.8 °F 36.0 °F 82% 30.11 in 10.0 mi NNE 8.1 mph - 0.01 in   Mostly Cloudy
5:56 PM 39.9 °F 34.5 °F 36.0 °F 86% 30.11 in 10.0 mi NNE 8.1 mph - 0.01 in   Clear
6:56 PM 39.9 °F 33.9 °F 35.1 °F 83% 30.09 in 10.0 mi NE 9.2 mph - 0.01 in   Clear
7:56 PM 41.0 °F 35.8 °F 35.1 °F 79% 30.08 in 10.0 mi ENE 8.1 mph - 0.02 in   Mostly Cloudy
8:56 PM 39.9 °F 35.8 °F 35.1 °F 83% 30.09 in 10.0 mi ENE 5.8 mph - N/A   Partly Cloudy
9:56 PM 41.0 °F 36.4 °F 36.0 °F 82% 30.07 in 10.0 mi NE 6.9 mph - 0.02 in   Overcast
10:56 PM 41.0 °F 36.4 °F 36.0 °F 82% 30.05 in 10.0 mi NNE 6.9 mph - 0.01 in   Overcast
11:56 PM 41.0 °F 37.1 °F 36.0 °F 82% 30.02 in 10.0 mi NE 5.8 mph - 0.01 in   Overcast